Location: Most
(50.5133°N, 13.6207°E)
Time: 12:44:57
(UTC+02:00)

ISS - Visible Passes

Search period start: 22 July 2017 00:00
Search period end: 01 August 2017 00:00
Orbit: 400 x 408 km, 51.6° (Epoch: 22 July)

Date Brightness Start Highest point End Pass type
(mag) Time Alt. Az. Time Alt. Az. Time Alt. Az.
22 Jul -3.9 01:10:46 38° W 01:11:54 82° N 01:15:10 10° ENE visible
22 Jul -3.8 02:45:13 10° WNW 02:48:29 78° N 02:51:46 10° E visible
22 Jul -3.4 04:21:46 10° W 04:24:51 39° SSW 04:27:56 10° SE visible
22 Jul -2.7 22:40:49 10° SSW 22:43:26 22° SE 22:46:03 10° E visible
23 Jul -4.0 00:16:19 10° WSW 00:19:34 80° SSE 00:22:51 10° ENE visible
23 Jul -3.6 01:52:53 10° W 01:56:08 70° N 01:59:24 10° E visible
23 Jul -3.9 03:29:24 10° WNW 03:32:37 58° SSW 03:35:50 10° ESE visible
23 Jul -2.1 21:49:28 10° S 21:51:19 14° SE 21:53:11 10° ESE visible
23 Jul -3.9 23:24:05 10° WSW 23:27:17 58° SSE 23:30:30 10° ENE visible
24 Jul -3.6 01:00:31 10° W 01:03:46 70° N 01:07:02 10° E visible
24 Jul -4.0 02:37:03 10° WNW 02:40:20 80° SSW 02:43:35 10° ESE visible
24 Jul -2.6 04:13:52 10° W 04:16:28 22° SW 04:19:06 10° SSE visible
24 Jul -3.4 22:31:58 10° SW 22:35:01 39° SSE 22:38:06 10° E visible
25 Jul -3.8 00:08:07 10° W 00:11:24 77° N 00:14:40 10° ENE visible
25 Jul -3.9 01:44:42 10° WNW 01:47:59 82° NNE 01:51:15 10° E visible
25 Jul -3.2 03:21:18 10° W 03:24:18 34° SSW 03:27:18 10° SE visible
25 Jul -2.8 21:40:03 10° SSW 21:42:49 26° SE 21:45:35 10° E visible
25 Jul -4.0 23:15:46 10° WSW 23:19:02 87° SSE 23:22:18 10° ENE visible
26 Jul -3.7 00:52:21 10° W 00:55:36 72° N 00:56:41 38° E visible
26 Jul -1.3 02:28:52 10° W 02:29:14 12° W 02:29:14 12° W visible
26 Jul -3.9 22:23:27 10° WSW 22:26:41 66° SSE 22:29:56 10° ENE visible
26 Jul -3.6 23:59:57 10° W 00:03:12 70° N 00:05:15 21° E visible
27 Jul -2.1 01:36:29 10° WNW 01:37:51 23° W 01:37:51 23° W visible
27 Jul -3.7 23:07:31 10° W 23:10:47 74° N 23:14:02 10° E visible
28 Jul -3.5 00:44:06 10° WNW 00:46:50 60° WNW 00:46:50 60° WNW visible
28 Jul -3.8 22:15:06 10° WSW 22:18:22 87° NNW 22:21:39 10° ENE visible
28 Jul -3.7 23:51:41 10° W 23:54:58 75° N 23:55:56 41° E visible
29 Jul -1.2 01:28:13 10° W 01:28:32 12° W 01:28:32 12° W visible
29 Jul -3.6 22:59:15 10° W 23:02:31 70° N 23:05:05 15° E visible
30 Jul -2.5 00:35:47 10° WNW 00:37:42 32° W 00:37:42 32° W visible
30 Jul -3.6 22:06:48 10° W 22:10:03 72° N 22:13:19 10° E visible
30 Jul -4.0 23:43:21 10° WNW 23:46:37 86° SSW 23:46:54 73° ESE visible
31 Jul -3.8 22:50:55 10° WNW 22:54:11 78° N 22:56:06 23° E visible
